Location: Hac?musa Deresi
(39.1694°N, 32.2508°E)
Time: 11:29:10
(UTC+00:00)

SL-4 R/B - Pass Details

Date: 22 April 2026
Orbit: 380 x 506 km, 51.6° (Epoch: 12 May)

Event Time Altitude Azimuth Distance (km) Brightness Sun altitude
Rises 18:18:46 0° 225° (SW) 2,520 5.5 -18.9°
Reaches altitude 10° 18:20:54 10° 224° (SW) 1,662 4.6 -19.2°
Maximum altitude 18:24:39 73° 140° (SE) 523 1.6 -19.8°
Enters shadow 18:25:20 56° 78° (ENE) 596 1.9 -19.9°
